Time,TemperatureF,DewpointF,PressureIn,WindDirection,WindDirectionDegrees,WindSpeedMPH,WindSpeedGustMPH,Humidity,HourlyPrecipIn,Conditions,Clouds,dailyrainin,SoftwareType,DateUTC
2016-12-09 00:01:00,34.7,13.9,29.17,West,270,2.2,-999.0,42,-99.99,,,0.00,,2016-12-09 05:01:00,
2016-12-09 00:06:00,34.7,13.9,29.17,NNE,22,2.7,-999.0,42,-99.99,,,0.00,,2016-12-09 05:06:00,
2016-12-09 00:12:00,34.3,14.6,29.17,NE,45,0.0,-999.0,44,-99.99,,,0.00,,2016-12-09 05:12:00,
2016-12-09 00:17:00,34.2,14.5,29.17,NNE,22,0.0,-999.0,44,-99.99,,,0.00,,2016-12-09 05:17:00,
2016-12-09 00:22:00,34.0,14.4,29.17,WSW,247,1.7,-999.0,44,-99.99,,,0.00,,2016-12-09 05:22:00,
2016-12-09 00:28:00,33.8,14.2,29.17,NE,45,0.0,-999.0,44,-99.99,,,0.00,,2016-12-09 05:28:00,
2016-12-09 00:33:00,33.6,14.5,29.17,West,270,2.7,-999.0,45,-99.99,,,0.00,,2016-12-09 05:33:00,
2016-12-09 00:39:00,34.0,13.3,29.17,NNW,337,2.7,-999.0,42,-99.99,,,0.00,,2016-12-09 05:39:00,
2016-12-09 00:44:00,33.6,13.5,29.17,SW,225,2.2,-999.0,43,-99.99,,,0.00,,2016-12-09 05:44:00,
2016-12-09 00:50:00,33.4,13.8,29.17,SSW,202,1.7,-999.0,44,-99.99,,,0.00,,2016-12-09 05:50:00,
2016-12-09 00:55:00,33.8,13.1,29.17,NW,315,2.2,-999.0,42,-99.99,,,0.00,,2016-12-09 05:55:00,
2016-12-09 01:01:00,34.0,12.7,29.17,NNW,337,2.7,-999.0,41,-99.99,,,0.00,,2016-12-09 06:01:00,
2016-12-09 01:06:00,33.6,14.0,29.17,NNW,337,6.8,-999.0,44,-99.99,,,0.00,,2016-12-09 06:06:00,
2016-12-09 01:11:00,33.6,13.5,29.17,WNW,292,4.7,-999.0,43,-99.99,,,0.00,,2016-12-09 06:11:00,
2016-12-09 01:17:00,33.6,12.9,29.17,North,360,10.4,-999.0,42,-99.99,,,0.00,,2016-12-09 06:17:00,
2016-12-09 01:22:00,33.4,13.3,29.17,NNE,22,2.2,-999.0,43,-99.99,,,0.00,,2016-12-09 06:22:00,
2016-12-09 01:28:00,33.1,13.5,29.16,North,360,6.8,-999.0,44,-99.99,,,0.00,,2016-12-09 06:28:00,
2016-12-09 01:33:00,33.3,14.2,29.16,NE,45,8.3,-999.0,45,-99.99,,,0.00,,2016-12-09 06:33:00,
2016-12-09 01:38:00,33.3,13.7,29.16,NNE,22,5.3,-999.0,44,-99.99,,,0.00,,2016-12-09 06:38:00,
2016-12-09 01:44:00,32.9,13.9,29.16,NW,315,5.3,-999.0,45,-99.99,,,0.00,,2016-12-09 06:44:00,
2016-12-09 01:49:00,33.1,13.5,29.16,NW,315,7.8,-999.0,44,-99.99,,,0.00,,2016-12-09 06:49:00,
2016-12-09 01:55:00,33.1,14.0,29.16,WNW,292,9.9,-999.0,45,-99.99,,,0.00,,2016-12-09 06:55:00,
2016-12-09 02:01:00,32.9,13.9,29.16,SW,225,10.9,-999.0,45,-99.99,,,0.00,,2016-12-09 07:01:00,
2016-12-09 02:06:00,32.7,14.2,29.15,West,270,6.8,-999.0,46,-99.99,,,0.00,,2016-12-09 07:06:00,
2016-12-09 02:11:00,32.4,14.4,29.15,South,180,1.1,-999.0,47,-99.99,,,0.00,,2016-12-09 07:11:00,
2016-12-09 02:17:00,32.4,14.9,29.16,West,270,4.7,-999.0,48,-99.99,,,0.00,,2016-12-09 07:17:00,
2016-12-09 02:22:00,32.5,14.5,29.16,West,270,3.7,-999.0,47,-99.99,,,0.00,,2016-12-09 07:22:00,
2016-12-09 02:28:00,32.0,15.0,29.15,NNW,337,3.2,-999.0,49,-99.99,,,0.00,,2016-12-09 07:28:00,
2016-12-09 02:33:00,32.0,15.0,29.15,NE,45,2.7,-999.0,49,-99.99,,,0.00,,2016-12-09 07:33:00,
2016-12-09 02:38:00,32.0,15.0,29.16,WNW,292,5.3,-999.0,49,-99.99,,,0.00,,2016-12-09 07:38:00,
2016-12-09 02:44:00,32.0,15.0,29.16,East,90,3.2,-999.0,49,-99.99,,,0.00,,2016-12-09 07:44:00,
2016-12-09 02:49:00,31.8,14.8,29.16,NE,45,6.8,-999.0,49,-99.99,,,0.00,,2016-12-09 07:49:00,
2016-12-09 02:54:00,31.8,14.8,29.17,NW,315,4.7,-999.0,49,-99.99,,,0.00,,2016-12-09 07:54:00,
2016-12-09 03:00:00,31.6,14.6,29.17,East,90,2.7,-999.0,49,-99.99,,,0.00,,2016-12-09 08:00:00,
2016-12-09 03:05:00,31.5,14.5,29.17,NW,315,2.7,-999.0,49,-99.99,,,0.00,,2016-12-09 08:05:00,
2016-12-09 03:10:00,31.5,14.5,29.17,NNW,337,4.7,-999.0,49,-99.99,,,0.00,,2016-12-09 08:10:00,
2016-12-09 03:16:00,31.3,13.9,29.18,North,360,3.7,-999.0,48,-99.99,,,0.00,,2016-12-09 08:16:00,
2016-12-09 03:21:00,31.3,13.9,29.18,NNE,22,4.2,-999.0,48,-99.99,,,0.00,,2016-12-09 08:21:00,
2016-12-09 03:26:00,31.1,14.2,29.17,SW,225,3.7,-999.0,49,-99.99,,,0.00,,2016-12-09 08:26:00,
2016-12-09 03:32:00,31.1,14.2,29.17,North,360,1.7,-999.0,49,-99.99,,,0.00,,2016-12-09 08:32:00,
2016-12-09 03:37:00,30.7,13.8,29.17,ESE,112,3.2,-999.0,49,-99.99,,,0.00,,2016-12-09 08:37:00,
2016-12-09 03:42:00,30.9,13.5,29.17,West,270,5.3,-999.0,48,-99.99,,,0.00,,2016-12-09 08:42:00,
2016-12-09 03:48:00,30.9,13.5,29.17,NNE,22,8.3,-999.0,48,-99.99,,,0.00,,2016-12-09 08:48:00,
2016-12-09 03:58:00,30.4,13.5,29.17,South,180,4.7,-999.0,49,-99.99,,,0.00,,2016-12-09 08:58:00,
2016-12-09 04:04:00,30.6,12.7,29.17,SW,225,5.3,-999.0,47,-99.99,,,0.00,,2016-12-09 09:04:00,
2016-12-09 04:09:00,30.6,12.7,29.17,NW,315,11.4,-999.0,47,-99.99,,,0.00,,2016-12-09 09:09:00,
2016-12-09 04:15:00,30.6,12.3,29.17,West,270,5.8,-999.0,46,-99.99,,,0.00,,2016-12-09 09:15:00,
2016-12-09 04:20:00,30.6,12.7,29.17,SSE,157,1.7,-999.0,47,-99.99,,,0.00,,2016-12-09 09:20:00,
2016-12-09 04:25:00,30.6,12.3,29.17,NNE,22,5.3,-999.0,46,-99.99,,,0.00,,2016-12-09 09:25:00,
2016-12-09 04:31:00,30.6,12.7,29.17,West,270,4.2,-999.0,47,-99.99,,,0.00,,2016-12-09 09:31:00,
2016-12-09 04:36:00,30.6,12.3,29.17,WNW,292,6.3,-999.0,46,-99.99,,,0.00,,2016-12-09 09:36:00,
2016-12-09 04:42:00,30.6,12.3,29.17,ENE,67,6.8,-999.0,46,-99.99,,,0.00,,2016-12-09 09:42:00,
2016-12-09 04:47:00,30.6,12.3,29.17,NNW,337,13.0,-999.0,46,-99.99,,,0.00,,2016-12-09 09:47:00,
2016-12-09 04:53:00,30.6,12.7,29.17,WNW,292,8.9,-999.0,47,-99.99,,,0.00,,2016-12-09 09:53:00,
2016-12-09 04:58:00,30.4,12.6,29.17,NW,315,5.3,-999.0,47,-99.99,,,0.00,,2016-12-09 09:58:00,
2016-12-09 05:03:00,30.2,13.8,29.17,West,270,7.3,-999.0,50,-99.99,,,0.00,,2016-12-09 10:03:00,
2016-12-09 05:09:00,30.0,13.1,29.17,North,360,5.3,-999.0,49,-99.99,,,0.00,,2016-12-09 10:09:00,
2016-12-09 05:14:00,29.8,13.4,29.17,NW,315,4.7,-999.0,50,-99.99,,,0.00,,2016-12-09 10:14:00,
2016-12-09 05:20:00,29.7,13.8,29.17,West,270,2.2,-999.0,51,-99.99,,,0.00,,2016-12-09 10:20:00,
2016-12-09 05:25:00,29.5,14.0,29.17,NNW,337,2.7,-999.0,52,-99.99,,,0.00,,2016-12-09 10:25:00,
2016-12-09 05:30:00,29.5,14.0,29.18,West,270,2.2,-999.0,52,-99.99,,,0.00,,2016-12-09 10:30:00,
2016-12-09 05:36:00,29.7,14.2,29.18,WSW,247,5.8,-999.0,52,-99.99,,,0.00,,2016-12-09 10:36:00,
2016-12-09 05:41:00,29.5,14.0,29.19,WSW,247,6.3,-999.0,52,-99.99,,,0.00,,2016-12-09 10:41:00,
2016-12-09 05:47:00,29.3,13.8,29.19,West,270,3.2,-999.0,52,-99.99,,,0.00,,2016-12-09 10:47:00,
2016-12-09 05:52:00,29.3,14.3,29.20,West,270,4.2,-999.0,53,-99.99,,,0.00,,2016-12-09 10:52:00,
2016-12-09 05:58:00,29.3,14.3,29.20,West,270,4.2,-999.0,53,-99.99,,,0.00,,2016-12-09 10:58:00,
2016-12-09 06:03:00,29.1,14.5,29.20,North,360,6.3,-999.0,54,-99.99,,,0.00,,2016-12-09 11:03:00,
2016-12-09 06:08:00,29.1,14.5,29.20,SSW,202,7.3,-999.0,54,-99.99,,,0.00,,2016-12-09 11:08:00,
2016-12-09 06:14:00,28.9,14.7,29.20,NW,315,3.7,-999.0,55,-99.99,,,0.00,,2016-12-09 11:14:00,
2016-12-09 06:19:00,28.8,14.7,29.20,NW,315,4.2,-999.0,55,-99.99,,,0.00,,2016-12-09 11:19:00,
2016-12-09 06:24:00,28.6,14.5,29.20,WNW,292,3.7,-999.0,55,-99.99,,,0.00,,2016-12-09 11:24:00,
2016-12-09 06:29:00,28.6,14.9,29.20,West,270,9.9,-999.0,56,-99.99,,,0.00,,2016-12-09 11:29:00,
2016-12-09 06:35:00,28.4,15.5,29.20,NNW,337,3.7,-999.0,58,-99.99,,,0.00,,2016-12-09 11:35:00,
2016-12-09 06:40:00,28.4,15.1,29.21,WSW,247,4.7,-999.0,57,-99.99,,,0.00,,2016-12-09 11:40:00,
2016-12-09 06:46:00,28.4,15.1,29.21,North,360,4.7,-999.0,57,-99.99,,,0.00,,2016-12-09 11:46:00,
2016-12-09 06:51:00,28.4,15.1,29.21,NW,315,3.7,-999.0,57,-99.99,,,0.00,,2016-12-09 11:51:00,
2016-12-09 06:56:00,28.4,14.7,29.21,NW,315,8.9,-999.0,56,-99.99,,,0.00,,2016-12-09 11:56:00,
2016-12-09 07:02:00,28.4,14.7,29.22,WNW,292,14.5,-999.0,56,-99.99,,,0.00,,2016-12-09 12:02:00,
2016-12-09 07:07:00,28.4,15.5,29.22,North,360,2.7,-999.0,58,-99.99,,,0.00,,2016-12-09 12:07:00,
2016-12-09 07:13:00,28.0,15.1,29.22,East,90,2.2,-999.0,58,-99.99,,,0.00,,2016-12-09 12:13:00,
2016-12-09 07:18:00,27.9,15.0,29.23,WNW,292,3.7,-999.0,58,-99.99,,,0.00,,2016-12-09 12:18:00,
2016-12-09 07:24:00,27.9,15.4,29.23,SW,225,3.7,-999.0,59,-99.99,,,0.00,,2016-12-09 12:24:00,
2016-12-09 07:29:00,27.9,15.4,29.23,West,270,4.2,-999.0,59,-99.99,,,0.00,,2016-12-09 12:29:00,
2016-12-09 07:35:00,27.9,15.8,29.23,North,360,3.2,-999.0,60,-99.99,,,0.00,,2016-12-09 12:35:00,
2016-12-09 07:40:00,27.9,15.4,29.24,WNW,292,4.7,-999.0,59,-99.99,,,0.00,,2016-12-09 12:40:00,
2016-12-09 07:45:00,27.7,15.6,29.24,NW,315,2.7,-999.0,60,-99.99,,,0.00,,2016-12-09 12:45:00,
2016-12-09 07:51:00,27.9,15.4,29.24,WSW,247,2.2,-999.0,59,-99.99,,,0.00,,2016-12-09 12:51:00,
2016-12-09 07:56:00,27.9,16.2,29.24,West,270,2.7,-999.0,61,-99.99,,,0.00,,2016-12-09 12:56:00,
2016-12-09 08:02:00,27.9,15.8,29.24,WNW,292,4.7,-999.0,60,-99.99,,,0.00,,2016-12-09 13:02:00,
2016-12-09 08:07:00,27.9,15.8,29.24,West,270,3.2,-999.0,60,-99.99,,,0.00,,2016-12-09 13:07:00,
2016-12-09 08:13:00,28.0,15.5,29.24,West,270,4.2,-999.0,59,-99.99,,,0.00,,2016-12-09 13:13:00,
2016-12-09 08:18:00,28.0,15.9,29.24,West,270,4.7,-999.0,60,-99.99,,,0.00,,2016-12-09 13:18:00,
2016-12-09 08:24:00,28.2,15.7,29.24,ENE,67,1.1,-999.0,59,-99.99,,,0.00,,2016-12-09 13:24:00,
2016-12-09 08:30:00,28.2,15.7,29.25,West,270,3.7,-999.0,59,-99.99,,,0.00,,2016-12-09 13:30:00,
2016-12-09 08:35:00,28.4,15.9,29.25,West,270,5.3,-999.0,59,-99.99,,,0.00,,2016-12-09 13:35:00,
2016-12-09 08:41:00,28.4,15.9,29.25,West,270,4.2,-999.0,59,-99.99,,,0.00,,2016-12-09 13:41:00,
2016-12-09 08:46:00,28.6,15.7,29.25,NE,45,3.2,-999.0,58,-99.99,,,0.00,,2016-12-09 13:46:00,
2016-12-09 08:52:00,28.8,15.9,29.26,ENE,67,7.3,-999.0,58,-99.99,,,0.00,,2016-12-09 13:52:00,
2016-12-09 08:57:00,28.9,15.6,29.26,West,270,5.8,-999.0,57,-99.99,,,0.00,,2016-12-09 13:57:00,
2016-12-09 09:02:00,29.1,16.5,29.26,South,180,8.3,-999.0,59,-99.99,,,0.00,,2016-12-09 14:02:00,
2016-12-09 09:08:00,29.5,16.5,29.26,West,270,4.7,-999.0,58,-99.99,,,0.00,,2016-12-09 14:08:00,
2016-12-09 09:13:00,29.7,16.3,29.26,SSE,157,4.7,-999.0,57,-99.99,,,0.00,,2016-12-09 14:13:00,
2016-12-09 09:19:00,29.8,16.0,29.26,SSW,202,4.7,-999.0,56,-99.99,,,0.00,,2016-12-09 14:19:00,
2016-12-09 09:30:00,30.4,16.6,29.27,SSW,202,6.8,-999.0,56,-99.99,,,0.00,,2016-12-09 14:30:00,
2016-12-09 09:35:00,30.6,17.2,29.27,West,270,0.0,-999.0,57,-99.99,,,0.00,,2016-12-09 14:35:00,
2016-12-09 09:41:00,30.7,16.4,29.27,South,180,2.2,-999.0,55,-99.99,,,0.00,,2016-12-09 14:41:00,
2016-12-09 09:46:00,31.3,16.6,29.27,SW,225,8.3,-999.0,54,-99.99,,,0.00,,2016-12-09 14:46:00,
2016-12-09 09:51:00,31.3,16.1,29.27,SW,225,4.7,-999.0,53,-99.99,,,0.00,,2016-12-09 14:51:00,
2016-12-09 09:57:00,31.5,16.3,29.27,NE,45,1.1,-999.0,53,-99.99,,,0.00,,2016-12-09 14:57:00,
2016-12-09 10:02:00,31.6,16.0,29.28,SSE,157,2.7,-999.0,52,-99.99,,,0.00,,2016-12-09 15:02:00,
2016-12-09 10:08:00,31.8,15.7,29.28,ENE,67,4.2,-999.0,51,-99.99,,,0.00,,2016-12-09 15:08:00,
2016-12-09 10:13:00,31.8,15.7,29.28,ENE,67,3.7,-999.0,51,-99.99,,,0.00,,2016-12-09 15:13:00,
2016-12-09 10:19:00,32.2,15.6,29.28,SSW,202,8.3,-999.0,50,-99.99,,,0.00,,2016-12-09 15:19:00,
2016-12-09 10:25:00,32.7,15.6,29.28,SW,225,6.8,-999.0,49,-99.99,,,0.00,,2016-12-09 15:25:00,
2016-12-09 10:30:00,32.4,15.4,29.28,NW,315,2.7,-999.0,49,-99.99,,,0.00,,2016-12-09 15:30:00,
2016-12-09 10:36:00,33.1,15.5,29.28,West,270,2.7,-999.0,48,-99.99,,,0.00,,2016-12-09 15:36:00,
2016-12-09 10:41:00,34.2,16.5,29.29,South,180,6.3,-999.0,48,-99.99,,,0.00,,2016-12-09 15:41:00,
2016-12-09 10:46:00,33.8,15.7,29.29,North,360,7.8,-999.0,47,-99.99,,,0.00,,2016-12-09 15:46:00,
2016-12-09 10:52:00,33.3,15.2,29.29,SSW,202,4.2,-999.0,47,-99.99,,,0.00,,2016-12-09 15:52:00,
2016-12-09 10:57:00,34.7,16.0,29.29,South,180,3.7,-999.0,46,-99.99,,,0.00,,2016-12-09 15:57:00,
2016-12-09 11:03:00,34.7,16.0,29.30,SSW,202,4.2,-999.0,46,-99.99,,,0.00,,2016-12-09 16:03:00,
2016-12-09 11:08:00,34.0,15.4,29.30,WNW,292,2.2,-999.0,46,-99.99,,,0.00,,2016-12-09 16:08:00,
2016-12-09 11:14:00,34.9,16.2,29.29,North,360,6.3,-999.0,46,-99.99,,,0.00,,2016-12-09 16:14:00,
2016-12-09 11:19:00,34.0,15.4,29.29,East,90,2.2,-999.0,46,-99.99,,,0.00,,2016-12-09 16:19:00,
2016-12-09 11:25:00,34.3,15.1,29.29,NNW,337,1.7,-999.0,45,-99.99,,,0.00,,2016-12-09 16:25:00,
2016-12-09 11:30:00,34.7,15.0,29.28,SE,135,4.2,-999.0,44,-99.99,,,0.00,,2016-12-09 16:30:00,
2016-12-09 11:36:00,34.5,14.8,29.28,NW,315,5.8,-999.0,44,-99.99,,,0.00,,2016-12-09 16:36:00,
2016-12-09 11:41:00,36.0,15.1,29.28,ENE,67,3.7,-999.0,42,-99.99,,,0.00,,2016-12-09 16:41:00,
2016-12-09 11:46:00,36.0,16.2,29.28,South,180,1.1,-999.0,44,-99.99,,,0.00,,2016-12-09 16:46:00,
2016-12-09 11:52:00,36.0,15.1,29.27,ESE,112,1.1,-999.0,42,-99.99,,,0.00,,2016-12-09 16:52:00,
2016-12-09 11:57:00,36.5,15.6,29.27,WNW,292,6.8,-999.0,42,-99.99,,,0.00,,2016-12-09 16:57:00,
2016-12-09 12:03:00,35.8,14.9,29.27,NNE,22,6.8,-999.0,42,-99.99,,,0.00,,2016-12-09 17:03:00,
2016-12-09 12:08:00,36.7,15.7,29.27,West,270,4.7,-999.0,42,-99.99,,,0.00,,2016-12-09 17:08:00,
2016-12-09 12:14:00,36.5,15.0,29.26,NNW,337,2.2,-999.0,41,-99.99,,,0.00,,2016-12-09 17:14:00,
2016-12-09 12:19:00,36.5,14.4,29.26,South,180,4.2,-999.0,40,-99.99,,,0.00,,2016-12-09 17:19:00,
2016-12-09 12:25:00,37.2,15.1,29.26,SSE,157,2.2,-999.0,40,-99.99,,,0.00,,2016-12-09 17:25:00,
2016-12-09 12:30:00,36.7,14.0,29.26,NNW,337,6.3,-999.0,39,-99.99,,,0.00,,2016-12-09 17:30:00,
2016-12-09 12:36:00,36.7,13.5,29.26,West,270,5.8,-999.0,38,-99.99,,,0.00,,2016-12-09 17:36:00,
2016-12-09 12:41:00,37.0,13.7,29.25,NNE,22,2.7,-999.0,38,-99.99,,,0.00,,2016-12-09 17:41:00,
2016-12-09 12:47:00,37.4,14.7,29.25,SW,225,3.2,-999.0,39,-99.99,,,0.00,,2016-12-09 17:47:00,
2016-12-09 12:52:00,37.6,13.7,29.25,West,270,3.7,-999.0,37,-99.99,,,0.00,,2016-12-09 17:52:00,
2016-12-09 12:58:00,37.4,13.5,29.25,ESE,112,2.2,-999.0,37,-99.99,,,0.00,,2016-12-09 17:58:00,
2016-12-09 13:03:00,37.2,12.7,29.24,NNW,337,8.9,-999.0,36,-99.99,,,0.00,,2016-12-09 18:03:00,
2016-12-09 13:09:00,37.4,12.9,29.24,NNE,22,4.2,-999.0,36,-99.99,,,0.00,,2016-12-09 18:09:00,
2016-12-09 13:14:00,37.8,12.6,29.24,SSW,202,2.2,-999.0,35,-99.99,,,0.00,,2016-12-09 18:14:00,
2016-12-09 13:20:00,37.8,12.6,29.24,ESE,112,3.7,-999.0,35,-99.99,,,0.00,,2016-12-09 18:20:00,
2016-12-09 13:25:00,38.7,13.4,29.24,NW,315,8.3,-999.0,35,-99.99,,,0.00,,2016-12-09 18:25:00,
2016-12-09 13:31:00,38.5,13.2,29.24,North,360,7.8,-999.0,35,-99.99,,,0.00,,2016-12-09 18:31:00,
2016-12-09 13:36:00,38.5,13.2,29.24,NW,315,2.2,-999.0,35,-99.99,,,0.00,,2016-12-09 18:36:00,
2016-12-09 13:41:00,38.7,13.4,29.24,NW,315,2.7,-999.0,35,-99.99,,,0.00,,2016-12-09 18:41:00,
2016-12-09 13:47:00,38.7,14.0,29.24,SW,225,0.0,-999.0,36,-99.99,,,0.00,,2016-12-09 18:47:00,
2016-12-09 13:52:00,39.0,13.6,29.24,WNW,292,2.2,-999.0,35,-99.99,,,0.00,,2016-12-09 18:52:00,
2016-12-09 13:58:00,38.8,12.8,29.24,West,270,4.2,-999.0,34,-99.99,,,0.00,,2016-12-09 18:58:00,
2016-12-09 14:03:00,39.0,13.0,29.23,NW,315,2.2,-999.0,34,-99.99,,,0.00,,2016-12-09 19:03:00,
2016-12-09 14:08:00,39.0,13.6,29.23,NW,315,3.7,-999.0,35,-99.99,,,0.00,,2016-12-09 19:08:00,
2016-12-09 14:15:00,39.7,13.6,29.24,WSW,247,3.2,-999.0,34,-99.99,,,0.00,,2016-12-09 19:15:00,
2016-12-09 14:20:00,39.6,14.2,29.24,NNW,337,5.8,-999.0,35,-99.99,,,0.00,,2016-12-09 19:20:00,
2016-12-09 14:26:00,39.9,13.8,29.24,South,180,7.8,-999.0,34,-99.99,,,0.00,,2016-12-09 19:26:00,
2016-12-09 14:31:00,39.7,14.3,29.25,WNW,292,4.7,-999.0,35,-99.99,,,0.00,,2016-12-09 19:31:00,
2016-12-09 14:36:00,40.3,14.1,29.25,South,180,2.7,-999.0,34,-99.99,,,0.00,,2016-12-09 19:36:00,
2016-12-09 14:42:00,39.4,12.7,29.25,NNW,337,3.2,-999.0,33,-99.99,,,0.00,,2016-12-09 19:42:00,
2016-12-09 14:47:00,39.7,12.2,29.25,North,360,8.3,-999.0,32,-99.99,,,0.00,,2016-12-09 19:47:00,
2016-12-09 14:53:00,39.6,12.1,29.24,West,270,2.2,-999.0,32,-99.99,,,0.00,,2016-12-09 19:53:00,
2016-12-09 14:58:00,38.8,11.4,29.24,West,270,5.3,-999.0,32,-99.99,,,0.00,,2016-12-09 19:58:00,
2016-12-09 15:01:00,39.0,10.9,29.24,South,180,7.3,-999.0,31,-99.99,,,0.00,,2016-12-09 20:01:00,
2016-12-09 15:07:00,39.2,11.1,29.24,WSW,247,5.3,-999.0,31,-99.99,,,0.00,,2016-12-09 20:07:00,
2016-12-09 15:12:00,39.0,10.9,29.24,West,270,5.8,-999.0,31,-99.99,,,0.00,,2016-12-09 20:12:00,
2016-12-09 15:18:00,39.2,11.1,29.24,WNW,292,7.8,-999.0,31,-99.99,,,0.00,,2016-12-09 20:18:00,
2016-12-09 15:23:00,38.8,10.7,29.24,South,180,7.3,-999.0,31,-99.99,,,0.00,,2016-12-09 20:23:00,
2016-12-09 15:29:00,38.7,9.9,29.25,West,270,5.8,-999.0,30,-99.99,,,0.00,,2016-12-09 20:29:00,
2016-12-09 15:34:00,38.8,10.7,29.25,West,270,4.2,-999.0,31,-99.99,,,0.00,,2016-12-09 20:34:00,
2016-12-09 15:39:00,38.8,9.2,29.24,NNE,22,12.5,-999.0,29,-99.99,,,0.00,,2016-12-09 20:39:00,
2016-12-09 15:45:00,38.8,9.2,29.24,NE,45,11.4,-999.0,29,-99.99,,,0.00,,2016-12-09 20:45:00,
2016-12-09 15:50:00,38.7,9.9,29.24,West,270,2.7,-999.0,30,-99.99,,,0.00,,2016-12-09 20:50:00,
2016-12-09 15:55:00,38.8,9.2,29.24,SW,225,5.8,-999.0,29,-99.99,,,0.00,,2016-12-09 20:55:00,
2016-12-09 16:00:00,38.5,9.0,29.24,North,360,9.4,-999.0,29,-99.99,,,0.00,,2016-12-09 21:00:00,
2016-12-09 16:06:00,38.5,9.0,29.25,NW,315,9.9,-999.0,29,-99.99,,,0.00,,2016-12-09 21:06:00,
2016-12-09 16:11:00,38.5,8.2,29.25,West,270,4.7,-999.0,28,-99.99,,,0.00,,2016-12-09 21:11:00,
2016-12-09 16:17:00,38.5,8.2,29.25,NNW,337,5.8,-999.0,28,-99.99,,,0.00,,2016-12-09 21:17:00,
2016-12-09 16:22:00,38.5,7.4,29.25,North,360,6.3,-999.0,27,-99.99,,,0.00,,2016-12-09 21:22:00,
2016-12-09 16:28:00,38.3,8.0,29.24,SW,225,6.3,-999.0,28,-99.99,,,0.00,,2016-12-09 21:28:00,
2016-12-09 16:33:00,38.1,7.0,29.24,North,360,8.9,-999.0,27,-99.99,,,0.00,,2016-12-09 21:33:00,
2016-12-09 16:38:00,38.1,7.8,29.25,West,270,8.9,-999.0,28,-99.99,,,0.00,,2016-12-09 21:38:00,
2016-12-09 16:44:00,37.9,7.7,29.25,NW,315,8.9,-999.0,28,-99.99,,,0.00,,2016-12-09 21:44:00,
2016-12-09 16:49:00,37.9,7.7,29.25,SW,225,1.1,-999.0,28,-99.99,,,0.00,,2016-12-09 21:49:00,
2016-12-09 16:55:00,37.8,7.6,29.25,SSW,202,6.8,-999.0,28,-99.99,,,0.00,,2016-12-09 21:55:00,
2016-12-09 17:00:00,37.6,7.4,29.25,WNW,292,5.3,-999.0,28,-99.99,,,0.00,,2016-12-09 22:00:00,
2016-12-09 17:05:00,37.4,7.2,29.25,NNW,337,3.2,-999.0,28,-99.99,,,0.00,,2016-12-09 22:05:00,
2016-12-09 17:11:00,37.0,8.4,29.25,West,270,4.2,-999.0,30,-99.99,,,0.00,,2016-12-09 22:11:00,
2016-12-09 17:16:00,36.7,8.9,29.25,SE,135,3.2,-999.0,31,-99.99,,,0.00,,2016-12-09 22:16:00,
2016-12-09 17:21:00,36.5,8.0,29.25,East,90,1.7,-999.0,30,-99.99,,,0.00,,2016-12-09 22:21:00,
2016-12-09 17:27:00,36.3,7.8,29.26,South,180,2.7,-999.0,30,-99.99,,,0.00,,2016-12-09 22:27:00,
2016-12-09 17:33:00,35.8,8.8,29.26,SSW,202,1.7,-999.0,32,-99.99,,,0.00,,2016-12-09 22:33:00,
2016-12-09 17:38:00,35.6,8.6,29.26,West,270,3.7,-999.0,32,-99.99,,,0.00,,2016-12-09 22:38:00,
2016-12-09 17:44:00,35.4,9.8,29.26,SSW,202,2.2,-999.0,34,-99.99,,,0.00,,2016-12-09 22:44:00,
2016-12-09 17:49:00,35.2,9.6,29.26,SW,225,1.7,-999.0,34,-99.99,,,0.00,,2016-12-09 22:49:00,
2016-12-09 17:55:00,35.2,8.9,29.27,WSW,247,2.2,-999.0,33,-99.99,,,0.00,,2016-12-09 22:55:00,
2016-12-09 18:00:00,35.1,8.9,29.27,SSW,202,1.7,-999.0,33,-99.99,,,0.00,,2016-12-09 23:00:00,
2016-12-09 18:05:00,34.5,9.0,29.27,SSW,202,2.2,-999.0,34,-99.99,,,0.00,,2016-12-09 23:05:00,
2016-12-09 18:11:00,34.9,10.0,29.27,West,270,0.0,-999.0,35,-99.99,,,0.00,,2016-12-09 23:11:00,
2016-12-09 18:16:00,34.0,9.8,29.28,South,180,2.2,-999.0,36,-99.99,,,0.00,,2016-12-09 23:16:00,
2016-12-09 18:22:00,34.3,10.7,29.28,West,270,2.2,-999.0,37,-99.99,,,0.00,,2016-12-09 23:22:00,
2016-12-09 18:27:00,33.3,13.7,29.28,NNW,337,1.7,-999.0,44,-99.99,,,0.00,,2016-12-09 23:27:00,
2016-12-09 18:33:00,33.3,11.6,29.28,WSW,247,0.0,-999.0,40,-99.99,,,0.00,,2016-12-09 23:33:00,
2016-12-09 18:38:00,33.1,11.4,29.28,West,270,2.2,-999.0,40,-99.99,,,0.00,,2016-12-09 23:38:00,
2016-12-09 18:44:00,31.8,13.4,29.28,NW,315,4.7,-999.0,46,-99.99,,,0.00,,2016-12-09 23:44:00,
2016-12-09 18:49:00,33.3,12.7,29.28,West,270,4.2,-999.0,42,-99.99,,,0.00,,2016-12-09 23:49:00,
2016-12-09 18:55:00,33.4,12.7,29.28,WSW,247,4.2,-999.0,42,-99.99,,,0.00,,2016-12-09 23:55:00,
2016-12-09 19:01:00,33.4,13.3,29.28,SSW,202,4.2,-999.0,43,-99.99,,,0.00,,2016-12-10 00:01:00,
2016-12-09 19:06:00,33.6,13.5,29.28,SW,225,2.7,-999.0,43,-99.99,,,0.00,,2016-12-10 00:06:00,
2016-12-09 19:12:00,33.6,12.9,29.28,West,270,2.2,-999.0,42,-99.99,,,0.00,,2016-12-10 00:12:00,
2016-12-09 19:17:00,33.1,14.0,29.28,West,270,4.2,-999.0,45,-99.99,,,0.00,,2016-12-10 00:17:00,
2016-12-09 19:22:00,33.1,14.0,29.28,SSW,202,5.8,-999.0,45,-99.99,,,0.00,,2016-12-10 00:22:00,
2016-12-09 19:28:00,33.3,13.2,29.28,West,270,2.7,-999.0,43,-99.99,,,0.00,,2016-12-10 00:28:00,
2016-12-09 19:33:00,33.1,13.5,29.28,SSW,202,3.2,-999.0,44,-99.99,,,0.00,,2016-12-10 00:33:00,
2016-12-09 19:39:00,32.9,13.4,29.28,WNW,292,6.8,-999.0,44,-99.99,,,0.00,,2016-12-10 00:39:00,
2016-12-09 19:44:00,32.9,12.8,29.28,WSW,247,3.7,-999.0,43,-99.99,,,0.00,,2016-12-10 00:44:00,
2016-12-09 19:50:00,32.7,12.6,29.28,South,180,2.2,-999.0,43,-99.99,,,0.00,,2016-12-10 00:50:00,
2016-12-09 19:55:00,32.7,12.6,29.28,WNW,292,3.2,-999.0,43,-99.99,,,0.00,,2016-12-10 00:55:00,
2016-12-09 20:00:00,32.5,11.9,29.28,SW,225,3.7,-999.0,42,-99.99,,,0.00,,2016-12-10 01:00:00,
2016-12-09 20:06:00,32.5,12.5,29.29,West,270,2.7,-999.0,43,-99.99,,,0.00,,2016-12-10 01:06:00,
2016-12-09 20:11:00,32.5,12.5,29.29,SSE,157,2.2,-999.0,43,-99.99,,,0.00,,2016-12-10 01:11:00,
2016-12-09 20:17:00,32.4,12.4,29.29,SW,225,2.7,-999.0,43,-99.99,,,0.00,,2016-12-10 01:17:00,
2016-12-09 20:22:00,32.5,11.9,29.29,SSW,202,6.8,-999.0,42,-99.99,,,0.00,,2016-12-10 01:22:00,
2016-12-09 20:28:00,32.5,11.9,29.30,SSW,202,4.7,-999.0,42,-99.99,,,0.00,,2016-12-10 01:28:00,